User: anonymous
Location: Caltech
(34.1382°N, 118.1253°W)
Time: 03:13:48
(UTC-07:00)
Language:

Cosmos 2333 Rocket - Orbit

View from above orbital plane
View from above orbital plane
View from above satellite
View from above satellite

Ground track
Ground track

The orbit data is extracted from the following two-line orbital elements,

1 24298U 96051B   14105.13703965 -.00000080  00000-0 -17113-4 0  4296
2 24298 070.8719 344.6655 0013725 112.9848 042.7914 14.12487155908162
Epoch (UTC): 15 April 2014 03:17:20
Eccentricity: 0.0013725
inclination: 70.8719°
perigee height: 841 km
apogee height: 861 km
right ascension of ascending node: 344.6655°
argument of perigee: 112.9848°
revolutions per day: 14.12487155
mean anomaly at epoch: 42.7914°
orbit number at epoch: 90816

The dashed part of the orbit path shows where the satellite is in the earth's shadow,  

DLR